Location: Newark
(47.5833°N, 8.1500°E)
Time: 16:54:22
(UTC+00:00)

Vanguard 2 - Visible Passes

Search period start: 21 October 2020 00:00
Search period end: 31 October 2020 00:00
Orbit: 554 x 2937 km, 32.9° (Epoch: 20 October)

Date Brightness Start Highest point End Pass type
(mag) Time Alt. Az. Time Alt. Az. Time Alt. Az.
21 Oct 11.2 00:48:26 13° SE 00:48:26 13° SE 00:49:21 10° SE visible
21 Oct 10.5 02:49:51 24° SSW 02:49:51 24° SSW 02:55:22 10° SSE visible
21 Oct 11.2 18:16:02 10° SSE 18:24:06 16° SE 18:25:36 16° SE visible
21 Oct 11.0 20:19:05 10° SSW 20:27:01 28° S 20:27:01 28° S visible
21 Oct 11.7 22:27:40 10° WSW 22:28:26 12° WSW 22:28:26 12° WSW visible
22 Oct 11.2 01:05:32 14° SE 01:05:32 14° SE 01:06:41 10° SE visible
22 Oct 10.7 03:06:58 20° SSW 03:06:58 20° SSW 03:11:49 10° S visible
22 Oct 11.0 18:30:59 10° S 18:41:10 21° SE 18:42:36 21° SE visible
22 Oct 10.9 20:36:00 10° SW 20:44:01 31° SSW 20:44:01 31° SSW visible
22 Oct 11.8 22:45:15 10° WSW 22:45:26 10° WSW 22:45:26 10° WSW visible
23 Oct 11.2 01:22:39 14° SE 01:22:39 14° SE 01:23:52 10° SE visible
23 Oct 10.9 03:24:05 16° SSW 03:24:05 16° SSW 03:27:40 10° S visible
23 Oct 10.9 18:46:50 10° SSW 18:58:19 26° SE 18:59:33 26° SE visible
23 Oct 10.9 20:53:08 10° SW 21:00:57 32° SSW 21:00:57 32° SSW visible
24 Oct 11.2 01:39:48 13° SSE 01:39:48 13° SSE 01:40:52 10° SSE visible
24 Oct 11.1 03:41:14 11° SSW 03:41:14 11° SSW 03:42:19 10° SSW visible
24 Oct 11.4 17:04:13 10° SE 17:07:18 11° SE 17:10:33 10° ESE visible
24 Oct 10.7 19:03:13 10° SSW 19:15:33 31° SSE 19:16:25 31° SE visible
24 Oct 11.0 21:10:28 10° SW 21:17:49 31° SW 21:17:49 31° SW visible
25 Oct 11.2 01:56:58 12° SSE 01:56:58 12° SSE 01:57:33 10° SSE visible
25 Oct 11.2 17:17:02 10° SSE 17:24:13 16° SE 17:31:49 11° ESE visible
25 Oct 10.6 19:19:58 10° SSW 19:32:53 36° SSE 19:33:13 36° SSE visible
25 Oct 11.0 21:27:57 10° WSW 21:34:37 29° SW 21:34:37 29° SW visible
26 Oct 11.0 17:32:15 10° S 17:41:13 21° SE 17:48:34 15° ESE visible
26 Oct 10.5 19:36:58 10° SW 19:49:58 40° SSE 19:49:58 40° SSE visible
26 Oct 11.1 21:45:32 10° WSW 21:51:21 27° SW 21:51:21 27° SW visible
27 Oct 10.8 17:48:18 10° SSW 17:58:18 26° SE 18:05:16 19° ESE visible
27 Oct 10.5 19:54:11 10° SW 20:06:39 43° S 20:06:39 43° S visible
27 Oct 11.3 22:03:13 10° WSW 22:08:02 24° WSW 22:08:02 24° WSW visible
28 Oct 10.7 18:04:50 10° SSW 18:15:30 31° SSE 18:21:53 24° ESE visible
28 Oct 10.5 20:11:34 10° WSW 20:23:17 45° S 20:23:17 45° S visible
28 Oct 11.4 22:21:00 10° WSW 22:24:40 20° WSW 22:24:40 20° WSW visible
29 Oct 10.6 18:21:41 10° SSW 18:32:48 35° SSE 18:38:29 29° ESE visible
29 Oct 10.5 20:29:04 10° WSW 20:39:52 44° SSW 20:39:52 44° SSW visible
29 Oct 11.5 22:38:52 10° W 22:41:15 16° WSW 22:41:15 16° WSW visible
30 Oct 10.9 16:34:26 10° S 16:41:44 19° SE 16:50:57 10° E visible
30 Oct 10.5 18:38:47 10° SW 18:50:11 39° SSE 18:55:02 33° SE visible
30 Oct 10.6 20:46:40 10° WSW 20:56:25 41° SSW 20:56:25 41° SSW visible
30 Oct 11.7 22:56:50 10° W 22:57:48 12° W 22:57:48 12° W visible
